EZY715 LOWI-LFMN

Flight info

Callsign EZY715
Flight time N/A
Altitude 19000
Route BRENO M726 NAXAV/N0457F350 DCT RENTA DCT ATPED DCT LUSIL DCT EVANO DCT ENOBA Z185 ASBOP/N0399F190 Z185 BORDI
Aircraft A320/M-SDE3FGHIRWY/LB1

Departure

Time 2026-05-06 05:43
Airport Innsbruck Airport (LOWI)

Arrival

Time N/A
Airport Nice-Côte d'Azur Airport (LFMN)
Time Latitude Longitude Altitude Speed Heading
2026-05-06 05:16 47.25835 11.35177 1894 ft 0 kts 171°
2026-05-06 05:27 47.25855 11.35173 1913 ft 4 kts 180°
2026-05-06 05:27 47.25881 11.35178 1897 ft 4 kts 209°
2026-05-06 05:28 47.25895 11.35200 1894 ft 1 kts 261°
2026-05-06 05:28 47.25895 11.35201 1894 ft 0 kts 261°
2026-05-06 05:31 47.25887 11.35130 1904 ft 14 kts 259°
2026-05-06 05:31 47.25873 11.34985 1904 ft 15 kts 264°
2026-05-06 05:32 47.25857 11.34835 1904 ft 15 kts 259°
2026-05-06 05:32 47.25837 11.34678 1900 ft 16 kts 259°
2026-05-06 05:32 47.25818 11.34508 1893 ft 17 kts 263°
2026-05-06 05:32 47.25800 11.34328 1904 ft 18 kts 261°
2026-05-06 05:33 47.25779 11.34143 1900 ft 12 kts 261°
2026-05-06 05:33 47.25771 11.34024 1904 ft 11 kts 275°
2026-05-06 05:33 47.25780 11.33966 1894 ft 4 kts 282°
2026-05-06 05:33 47.25786 11.33932 1901 ft 3 kts 286°
2026-05-06 05:34 47.25791 11.33913 1902 ft 1 kts 295°
2026-05-06 05:34 47.25794 11.33908 1894 ft 0 kts 303°
2026-05-06 05:36 47.25803 11.33888 1891 ft 5 kts 304°
2026-05-06 05:36 47.25832 11.33826 1892 ft 10 kts 305°
2026-05-06 05:36 47.25881 11.33726 1899 ft 14 kts 307°
2026-05-06 05:36 47.25931 11.33601 1902 ft 13 kts 273°
2026-05-06 05:37 47.25918 11.33439 1900 ft 19 kts 263°
2026-05-06 05:37 47.25904 11.33242 1900 ft 18 kts 262°
2026-05-06 05:37 47.25876 11.33098 1901 ft 6 kts 199°
2026-05-06 05:37 47.25868 11.33147 1904 ft 7 kts 64°
2026-05-06 05:38 47.25894 11.33238 1902 ft 12 kts 75°
2026-05-06 05:38 47.25898 11.33265 1901 ft 0 kts 79°
2026-05-06 05:42 47.25938 11.33632 1896 ft 80 kts 81°
2026-05-06 05:42 47.26067 11.34828 1894 ft 153 kts 81°
2026-05-06 05:42 47.26250 11.36529 2391 ft 173 kts 81°
2026-05-06 05:43 47.26458 11.38322 3249 ft 182 kts 81°
2026-05-06 05:43 47.26674 11.40193 4091 ft 187 kts 80°
2026-05-06 05:43 47.26883 11.42024 4859 ft 176 kts 79°
2026-05-06 05:43 47.27087 11.43826 5343 ft 186 kts 81°
2026-05-06 05:44 47.27315 11.45777 5698 ft 201 kts 82°
2026-05-06 05:44 47.27565 11.47866 6103 ft 213 kts 82°
2026-05-06 05:44 47.27832 11.50065 6538 ft 223 kts 82°
2026-05-06 05:44 47.28115 11.52350 7026 ft 230 kts 83°
2026-05-06 05:45 47.28253 11.54713 7564 ft 234 kts 95°
2026-05-06 05:45 47.27989 11.57127 8041 ft 244 kts 111°
2026-05-06 05:45 47.27207 11.59366 8595 ft 248 kts 131°
2026-05-06 05:45 47.25932 11.61085 9269 ft 251 kts 150°
2026-05-06 05:46 47.24244 11.61984 9648 ft 267 kts 177°
2026-05-06 05:46 47.22389 11.61597 10134 ft 280 kts 202°
2026-05-06 05:46 47.20662 11.60113 10299 ft 303 kts 212°
2026-05-06 05:46 47.18845 11.58321 10476 ft 326 kts 213°
2026-05-06 05:47 47.16912 11.56379 10785 ft 342 kts 213°
2026-05-06 05:47 47.14928 11.54381 11436 ft 347 kts 214°
2026-05-06 05:47 47.12924 11.52367 12172 ft 350 kts 214°
2026-05-06 05:47 47.10903 11.50352 12877 ft 353 kts 214°
2026-05-06 05:48 47.08857 11.48327 13585 ft 356 kts 214°
2026-05-06 05:48 47.06793 11.46292 14209 ft 359 kts 214°
2026-05-06 05:48 47.04710 11.44244 14811 ft 361 kts 214°
2026-05-06 05:48 47.02616 11.42190 15438 ft 363 kts 214°
2026-05-06 05:49 47.00505 11.40131 16105 ft 365 kts 213°
2026-05-06 05:49 46.98230 11.38453 16689 ft 369 kts 202°
2026-05-06 05:49 46.95775 11.37479 17296 ft 374 kts 191°
2026-05-06 05:49 46.93175 11.37123 17914 ft 376 kts 186°
2026-05-06 05:50 46.90547 11.36846 18444 ft 379 kts 187°
2026-05-06 05:50 46.87906 11.36560 18995 ft 381 kts 187°
2026-05-06 05:50 46.85258 11.36272 19528 ft 382 kts 187°
2026-05-06 05:50 46.82596 11.35980 19970 ft 385 kts 186°
2026-05-06 05:51 46.79924 11.35689 20480 ft 385 kts 187°
2026-05-06 05:51 46.77251 11.35395 20990 ft 385 kts 187°
2026-05-06 05:51 46.74567 11.35106 21370 ft 388 kts 187°
2026-05-06 05:51 46.71856 11.34824 21816 ft 390 kts 187°
2026-05-06 05:52 46.69144 11.34547 22277 ft 392 kts 187°
2026-05-06 05:52 46.66445 11.34273 22660 ft 395 kts 187°
2026-05-06 05:52 46.63695 11.33995 23080 ft 396 kts 187°
2026-05-06 05:52 46.60934 11.33714 23471 ft 398 kts 187°
2026-05-06 05:53 46.58167 11.33429 23797 ft 400 kts 187°
2026-05-06 05:53 46.55384 11.33142 24133 ft 401 kts 188°
2026-05-06 05:53 46.52598 11.32782 24450 ft 401 kts 192°
2026-05-06 05:53 46.49920 11.31737 24765 ft 398 kts 204°
2026-05-06 05:54 46.47470 11.29880 25081 ft 398 kts 215°
2026-05-06 05:54 46.45351 11.27307 25389 ft 399 kts 226°
2026-05-06 05:54 46.43646 11.24115 25714 ft 403 kts 237°
2026-05-06 05:54 46.42346 11.20491 25978 ft 406 kts 241°
2026-05-06 05:55 46.41092 11.16810 26247 ft 408 kts 241°
2026-05-06 05:55 46.39841 11.13156 26616 ft 408 kts 240°
2026-05-06 05:55 46.38561 11.09439 26894 ft 410 kts 240°
2026-05-06 05:55 46.37284 11.05745 27162 ft 411 kts 240°
2026-05-06 05:56 46.36433 11.03290 27319 ft 412 kts 240°
2026-05-06 05:56 46.35146 10.99579 27534 ft 413 kts 240°
2026-05-06 05:56 46.33861 10.95873 27817 ft 412 kts 240°
2026-05-06 05:56 46.32577 10.92173 28155 ft 410 kts 240°
2026-05-06 05:57 46.31296 10.88482 28494 ft 409 kts 240°
2026-05-06 05:57 46.30024 10.84817 28891 ft 407 kts 240°
2026-05-06 05:57 46.28760 10.81174 29302 ft 403 kts 240°
2026-05-06 05:57 46.27510 10.77573 29669 ft 401 kts 240°
2026-05-06 05:58 46.26260 10.73977 30069 ft 399 kts 240°
2026-05-06 05:58 46.25017 10.70407 30382 ft 397 kts 240°
2026-05-06 05:58 46.23778 10.66856 30686 ft 395 kts 240°
2026-05-06 05:58 46.22540 10.63314 30964 ft 394 kts 240°
2026-05-06 05:59 46.21320 10.59829 31253 ft 394 kts 240°
2026-05-06 05:59 46.20089 10.56311 31578 ft 392 kts 240°
2026-05-06 05:59 46.18857 10.52798 31859 ft 391 kts 240°
2026-05-06 05:59 46.17629 10.49306 32169 ft 390 kts 240°
2026-05-06 06:00 46.16403 10.45820 32480 ft 388 kts 240°
2026-05-06 06:00 46.15182 10.42354 32788 ft 387 kts 240°
2026-05-06 06:00 46.13963 10.38891 33154 ft 386 kts 239°
2026-05-06 06:00 46.12746 10.35446 33491 ft 385 kts 240°
2026-05-06 06:01 46.11533 10.32017 33820 ft 384 kts 240°
2026-05-06 06:01 46.10322 10.28594 34061 ft 383 kts 240°
2026-05-06 06:01 46.09122 10.25206 34235 ft 383 kts 240°
2026-05-06 06:01 46.07904 10.21780 34426 ft 385 kts 240°
2026-05-06 06:02 46.06679 10.18346 34623 ft 386 kts 240°
2026-05-06 06:02 46.05453 10.14904 34807 ft 387 kts 240°
2026-05-06 06:02 46.04153 10.11497 34910 ft 387 kts 235°
2026-05-06 06:02 46.02589 10.08325 34927 ft 390 kts 232°
2026-05-06 06:03 45.99379 10.02007 34928 ft 392 kts 232°
2026-05-06 06:03 45.96152 9.95672 34918 ft 392 kts 232°
2026-05-06 06:04 45.92946 9.89394 34921 ft 392 kts 232°
2026-05-06 06:04 45.89720 9.83088 34913 ft 391 kts 232°
2026-05-06 06:05 45.86491 9.76801 34907 ft 391 kts 232°
2026-05-06 06:05 45.83254 9.70520 34905 ft 391 kts 232°
2026-05-06 06:06 45.80013 9.64246 34903 ft 391 kts 232°
2026-05-06 06:06 45.76775 9.57986 34888 ft 390 kts 232°
2026-05-06 06:07 45.73539 9.51744 34894 ft 390 kts 232°
2026-05-06 06:07 45.70324 9.45559 34898 ft 389 kts 232°
2026-05-06 06:08 45.68707 9.42451 35052 ft 389 kts 231°
2026-05-06 06:08 45.67090 9.39341 35048 ft 390 kts 231°
2026-05-06 06:08 45.65471 9.36235 34893 ft 390 kts 231°
2026-05-06 06:08 45.63844 9.33118 34896 ft 390 kts 231°
2026-05-06 06:09 45.60608 9.26936 34896 ft 390 kts 231°
2026-05-06 06:09 45.57354 9.20729 34879 ft 390 kts 231°
2026-05-06 06:10 45.54096 9.14529 34879 ft 389 kts 231°
2026-05-06 06:10 45.50845 9.08344 34885 ft 389 kts 231°
2026-05-06 06:11 45.47610 9.02203 34888 ft 390 kts 231°
2026-05-06 06:11 45.44355 8.96036 34882 ft 390 kts 231°
2026-05-06 06:12 45.41081 8.89858 34901 ft 391 kts 231°
2026-05-06 06:12 45.37786 8.83679 34916 ft 392 kts 231°
2026-05-06 06:13 45.34196 8.77881 34934 ft 390 kts 219°
2026-05-06 06:13 45.29449 8.74159 34937 ft 394 kts 200°
2026-05-06 06:14 45.24241 8.71856 34917 ft 394 kts 200°
2026-05-06 06:14 45.18998 8.69522 34831 ft 395 kts 200°
2026-05-06 06:15 45.13754 8.67193 34836 ft 394 kts 200°
2026-05-06 06:15 45.08509 8.64878 34836 ft 394 kts 200°
2026-05-06 06:16 45.03294 8.62567 34832 ft 394 kts 200°
2026-05-06 06:16 44.98061 8.60255 34852 ft 393 kts 200°
2026-05-06 06:17 44.92835 8.57959 34855 ft 393 kts 200°
2026-05-06 06:17 44.87609 8.55665 34849 ft 393 kts 200°
2026-05-06 06:18 44.82418 8.53393 34838 ft 392 kts 201°
2026-05-06 06:18 44.77204 8.51116 34845 ft 392 kts 200°
2026-05-06 06:19 44.71997 8.48842 34852 ft 392 kts 201°
2026-05-06 06:19 44.66793 8.46570 34844 ft 391 kts 201°
2026-05-06 06:20 44.61587 8.44304 34850 ft 391 kts 200°
2026-05-06 06:20 44.56389 8.42043 34854 ft 391 kts 201°
2026-05-06 06:21 44.51221 8.39806 34860 ft 391 kts 201°
2026-05-06 06:21 44.46006 8.37555 34862 ft 391 kts 201°
2026-05-06 06:22 44.40799 8.35309 34862 ft 391 kts 201°
2026-05-06 06:22 44.35658 8.33090 34702 ft 391 kts 201°